Location: Audinghen
(50.8518°N, 1.6129°E)
Time: 16:20:48
(UTC+00:00)

Cosmos 1340 Rocket - Pass Details

Date: 07 August 2020
Orbit: 529 x 558 km, 81.2° (Epoch: 18 September)

Event Time Altitude Azimuth Distance (km) Brightness Sun altitude
Exits shadow 03:30:53 10° 216° (SW) 1,785 4.8 -8.5°
Maximum altitude 03:34:37 42° 288° (WNW) 786 3.4 -8.0°
Drops below altitude 10° 03:38:25 10° 0° (N) 1,809 6.0 -7.6°
Sets 03:40:40 0° 8° (N) 2,701 7.1 -7.3°
